owner,sensor,date,latitude,longitude,vertical_datum,sea_water_practical_salinity,qcFlag 
SCCF RECON,ioos:station:SCCF:13:1,2014-06-01T00:00:00Z,26.5255,-82.0032,2.428,31.67,1111122 
SCCF RECON,ioos:station:SCCF:13:1,2014-06-01T01:00:00Z,26.5255,-82.0032,2.359,30.67,1111122 
SCCF RECON,ioos:station:SCCF:13:1,2014-06-01T02:00:00Z,26.5255,-82.0032,2.28,28.6,1111122 
SCCF RECON,ioos:station:SCCF:13:1,2014-06-01T03:00:00Z,26.5255,-82.0032,2.23,26.98,1111122 
SCCF RECON,ioos:station:SCCF:13:1,2014-06-01T04:00:00Z,26.5255,-82.0032,2.24,26.13,1111122 
SCCF RECON,ioos:station:SCCF:13:1,2014-06-01T05:00:00Z,26.5255,-82.0032,2.34,25.53,1111122 
SCCF RECON,ioos:station:SCCF:13:1,2014-06-01T06:00:00Z,26.5255,-82.0032,2.46,25.25,1111122 
SCCF RECON,ioos:station:SCCF:13:1,2014-06-01T07:00:00Z,26.5255,-82.0032,2.524,27.47,1111122 
SCCF RECON,ioos:station:SCCF:13:1,2014-06-01T08:00:00Z,26.5255,-82.0032,2.56,28.87,1111122 
SCCF RECON,ioos:station:SCCF:13:1,2014-06-01T09:00:00Z,26.5255,-82.0032,2.57,30.59,1111122 
SCCF RECON,ioos:station:SCCF:13:1,2014-06-01T10:00:00Z,26.5255,-82.0032,2.558,31.79,1111122 
SCCF RECON,ioos:station:SCCF:13:1,2014-06-01T11:00:00Z,26.5255,-82.0032,2.55,32.51,1111122 
SCCF RECON,ioos:station:SCCF:13:1,2014-06-01T12:00:00Z,26.5255,-82.0032,2.521,32.96,1111122 
SCCF RECON,ioos:station:SCCF:13:1,2014-06-01T13:00:00Z,26.5255,-82.0032,2.482,32.61,1111122 
SCCF RECON,ioos:station:SCCF:13:1,2014-06-01T14:00:00Z,26.5255,-82.0032,2.473,30.72,1111122 
SCCF RECON,ioos:station:SCCF:13:1,2014-06-01T15:00:00Z,26.5255,-82.0032,2.491,28.32,1111122 
SCCF RECON,ioos:station:SCCF:13:1,2014-06-01T16:00:00Z,26.5255,-82.0032,2.562,29.53,1111122 
SCCF RECON,ioos:station:SCCF:13:1,2014-06-01T17:00:00Z,26.5255,-82.0032,2.63,31.15,1111122 
SCCF RECON,ioos:station:SCCF:13:1,2014-06-01T18:00:00Z,26.5255,-82.0032,2.694,32.65,1111122 
SCCF RECON,ioos:station:SCCF:13:1,2014-06-01T19:00:00Z,26.5255,-82.0032,2.732,33.24,1111122 
SCCF RECON,ioos:station:SCCF:13:1,2014-06-01T20:00:00Z,26.5255,-82.0032,2.759,33.74,1111122 
SCCF RECON,ioos:station:SCCF:13:1,2014-06-01T21:00:00Z,26.5255,-82.0032,2.74,33.84,1111122 
SCCF RECON,ioos:station:SCCF:13:1,2014-06-01T22:00:00Z,26.5255,-82.0032,2.689,33.91,1111122 
SCCF RECON,ioos:station:SCCF:13:1,2014-06-01T23:00:00Z,26.5255,-82.0032,2.608,33.79,1111122 
SCCF RECON,ioos:station:SCCF:13:1,2014-06-02T00:00:00Z,26.5255,-82.0032,2.48,32.22,1111122 
SCCF RECON,ioos:station:SCCF:13:1,2014-06-02T01:00:00Z,26.5255,-82.0032,2.41,29.16,1111122 
SCCF RECON,ioos:station:SCCF:13:1,2014-06-02T02:00:00Z,26.5255,-82.0032,2.338,28.79,1111122 
SCCF RECON,ioos:station:SCCF:13:1,2014-06-02T03:00:00Z,26.5255,-82.0032,2.26,27.45,1111122 
SCCF RECON,ioos:station:SCCF:13:1,2014-06-02T04:00:00Z,26.5255,-82.0032,2.21,26.28,1111122 
SCCF RECON,ioos:station:SCCF:13:1,2014-06-02T05:00:00Z,26.5255,-82.0032,2.27,25.52,1111122 
SCCF RECON,ioos:station:SCCF:13:1,2014-06-02T06:00:00Z,26.5255,-82.0032,2.41,24.83,1111122 
SCCF RECON,ioos:station:SCCF:13:1,2014-06-02T07:00:00Z,26.5255,-82.0032,2.47,25.6,1111122 
SCCF RECON,ioos:station:SCCF:13:1,2014-06-02T08:00:00Z,26.5255,-82.0032,2.499,27.74,1111122 
SCCF RECON,ioos:station:SCCF:13:1,2014-06-02T09:00:00Z,26.5255,-82.0032,2.53,29.07,1111122 
SCCF RECON,ioos:station:SCCF:13:1,2014-06-02T10:00:00Z,26.5255,-82.0032,2.539,30.64,1111122 
SCCF RECON,ioos:station:SCCF:13:1,2014-06-02T11:00:00Z,26.5255,-82.0032,2.53,31.68,1111122 
SCCF RECON,ioos:station:SCCF:13:1,2014-06-02T12:00:00Z,26.5255,-82.0032,2.52,32.39,1111122 
SCCF RECON,ioos:station:SCCF:13:1,2014-06-02T13:00:00Z,26.5255,-82.0032,2.497,32.03,1111122 
SCCF RECON,ioos:station:SCCF:13:1,2014-06-02T14:00:00Z,26.5255,-82.0032,2.46,31.35,1111122 
SCCF RECON,ioos:station:SCCF:13:1,2014-06-02T15:00:00Z,26.5255,-82.0032,2.44,27.96,1111122 
SCCF RECON,ioos:station:SCCF:13:1,2014-06-02T16:00:00Z,26.5255,-82.0032,2.46,25.91,1111122 
SCCF RECON,ioos:station:SCCF:13:1,2014-06-02T17:00:00Z,26.5255,-82.0032,2.52,26.06,1111122 
SCCF RECON,ioos:station:SCCF:13:1,2014-06-02T18:00:00Z,26.5255,-82.0032,2.551,30.01,1111122 
SCCF RECON,ioos:station:SCCF:13:1,2014-06-02T19:00:00Z,26.5255,-82.0032,2.606,30.89,1111122 
SCCF RECON,ioos:station:SCCF:13:1,2014-06-02T20:00:00Z,26.5255,-82.0032,2.649,32.45,1111122 
SCCF RECON,ioos:station:SCCF:13:1,2014-06-02T21:00:00Z,26.5255,-82.0032,2.67,33.16,1111122 
SCCF RECON,ioos:station:SCCF:13:1,2014-06-02T22:00:00Z,26.5255,-82.0032,2.669,33.7,1111122 
SCCF RECON,ioos:station:SCCF:13:1,2014-06-02T23:00:00Z,26.5255,-82.0032,2.58,33.62,1111122 
SCCF RECON,ioos:station:SCCF:13:1,2014-06-03T00:00:00Z,26.5255,-82.0032,2.48,33.55,1111122 
SCCF RECON,ioos:station:SCCF:13:1,2014-06-03T01:00:00Z,26.5255,-82.0032,2.4,30.27,1111122 
SCCF RECON,ioos:station:SCCF:13:1,2014-06-03T02:00:00Z,26.5255,-82.0032,2.33,26.73,1111122 
SCCF RECON,ioos:station:SCCF:13:1,2014-06-03T03:00:00Z,26.5255,-82.0032,2.264,26.41,1111122 
SCCF RECON,ioos:station:SCCF:13:1,2014-06-03T04:00:00Z,26.5255,-82.0032,2.23,25.43,1111122 
SCCF RECON,ioos:station:SCCF:13:1,2014-06-03T05:00:00Z,26.5255,-82.0032,2.265,24.51,1111122 
SCCF RECON,ioos:station:SCCF:13:1,2014-06-03T06:00:00Z,26.5255,-82.0032,2.36,23.99,1111122 
SCCF RECON,ioos:station:SCCF:13:1,2014-06-03T07:00:00Z,26.5255,-82.0032,2.416,24.8,1111122 
SCCF RECON,ioos:station:SCCF:13:1,2014-06-03T08:00:00Z,26.5255,-82.0032,2.48,27.49,1111122 
SCCF RECON,ioos:station:SCCF:13:1,2014-06-03T09:00:00Z,26.5255,-82.0032,2.52,29.33,1111122 
SCCF RECON,ioos:station:SCCF:13:1,2014-06-03T10:00:00Z,26.5255,-82.0032,2.57,31.58,1111122 
SCCF RECON,ioos:station:SCCF:13:1,2014-06-03T11:00:00Z,26.5255,-82.0032,2.594,33.0,1111122 
SCCF RECON,ioos:station:SCCF:13:1,2014-06-03T12:00:00Z,26.5255,-82.0032,2.599,33.71,1111122 
SCCF RECON,ioos:station:SCCF:13:1,2014-06-03T13:00:00Z,26.5255,-82.0032,2.586,33.58,1111122 
SCCF RECON,ioos:station:SCCF:13:1,2014-06-03T14:00:00Z,26.5255,-82.0032,2.554,33.75,1111122 
SCCF RECON,ioos:station:SCCF:13:1,2014-06-03T15:00:00Z,26.5255,-82.0032,2.53,33.7,1111122 
SCCF RECON,ioos:station:SCCF:13:1,2014-06-03T16:00:00Z,26.5255,-82.0032,2.51,33.41,1111122 
SCCF RECON,ioos:station:SCCF:13:1,2014-06-03T17:00:00Z,26.5255,-82.0032,2.53,32.12,1111122 
SCCF RECON,ioos:station:SCCF:13:1,2014-06-03T18:00:00Z,26.5255,-82.0032,2.56,32.99,1111122 
SCCF RECON,ioos:station:SCCF:13:1,2014-06-03T19:00:00Z,26.5255,-82.0032,2.608,32.48,1111122 
SCCF RECON,ioos:station:SCCF:13:1,2014-06-03T20:00:00Z,26.5255,-82.0032,2.67,33.18,1111122 
SCCF RECON,ioos:station:SCCF:13:1,2014-06-03T21:00:00Z,26.5255,-82.0032,2.7,33.7,1111122 
SCCF RECON,ioos:station:SCCF:13:1,2014-06-03T22:00:00Z,26.5255,-82.0032,2.71,33.9,1111122 
SCCF RECON,ioos:station:SCCF:13:1,2014-06-03T23:00:00Z,26.5255,-82.0032,2.67,34.06,1111122 
SCCF RECON,ioos:station:SCCF:13:1,2014-06-04T00:00:00Z,26.5255,-82.0032,2.61,34.04,1111122 
SCCF RECON,ioos:station:SCCF:13:1,2014-06-04T01:00:00Z,26.5255,-82.0032,2.53,33.67,1111122 
SCCF RECON,ioos:station:SCCF:13:1,2014-06-04T02:00:00Z,26.5255,-82.0032,2.46,30.09,1111122 
SCCF RECON,ioos:station:SCCF:13:1,2014-06-04T03:00:00Z,26.5255,-82.0032,2.39,27.9,1111122 
SCCF RECON,ioos:station:SCCF:13:1,2014-06-04T04:00:00Z,26.5255,-82.0032,2.331,27.52,1111122 
SCCF RECON,ioos:station:SCCF:13:1,2014-06-04T05:00:00Z,26.5255,-82.0032,2.299,26.26,1111122 
SCCF RECON,ioos:station:SCCF:13:1,2014-06-04T06:00:00Z,26.5255,-82.0032,2.33,25.37,1111122 
SCCF RECON,ioos:station:SCCF:13:1,2014-06-04T07:00:00Z,26.5255,-82.0032,2.43,24.76,1111122 
SCCF RECON,ioos:station:SCCF:13:1,2014-06-04T08:00:00Z,26.5255,-82.0032,2.5,26.76,1111122 
SCCF RECON,ioos:station:SCCF:13:1,2014-06-04T09:00:00Z,26.5255,-82.0032,2.55,28.94,1111122 
SCCF RECON,ioos:station:SCCF:13:1,2014-06-04T10:00:00Z,26.5255,-82.0032,2.6,30.8,1111122 
SCCF RECON,ioos:station:SCCF:13:1,2014-06-04T11:00:00Z,26.5255,-82.0032,2.635,32.34,1111122 
SCCF RECON,ioos:station:SCCF:13:1,2014-06-04T12:00:00Z,26.5255,-82.0032,2.631,33.37,1111122 
SCCF RECON,ioos:station:SCCF:13:1,2014-06-04T13:00:00Z,26.5255,-82.0032,2.593,33.73,1111122 
SCCF RECON,ioos:station:SCCF:13:1,2014-06-04T14:00:00Z,26.5255,-82.0032,2.56,33.94,1111122 
SCCF RECON,ioos:station:SCCF:13:1,2014-06-04T15:00:00Z,26.5255,-82.0032,2.54,33.82,1111122 
SCCF RECON,ioos:station:SCCF:13:1,2014-06-04T16:00:00Z,26.5255,-82.0032,2.514,33.38,1111122 
SCCF RECON,ioos:station:SCCF:13:1,2014-06-04T17:00:00Z,26.5255,-82.0032,2.493,31.63,1111122 
SCCF RECON,ioos:station:SCCF:13:1,2014-06-04T18:00:00Z,26.5255,-82.0032,2.51,30.11,1111122 
SCCF RECON,ioos:station:SCCF:13:1,2014-06-04T19:00:00Z,26.5255,-82.0032,2.545,31.87,1111122 
SCCF RECON,ioos:station:SCCF:13:1,2014-06-04T20:00:00Z,26.5255,-82.0032,2.6,31.0,1111122 
SCCF RECON,ioos:station:SCCF:13:1,2014-06-04T21:00:00Z,26.5255,-82.0032,2.64,32.2,1111122 
SCCF RECON,ioos:station:SCCF:13:1,2014-06-04T22:00:00Z,26.5255,-82.0032,2.64,32.5,1111122 
SCCF RECON,ioos:station:SCCF:13:1,2014-06-04T23:00:00Z,26.5255,-82.0032,2.64,32.97,1111122 
SCCF RECON,ioos:station:SCCF:13:1,2014-06-05T00:00:00Z,26.5255,-82.0032,2.62,33.47,1111122 
SCCF RECON,ioos:station:SCCF:13:1,2014-06-05T01:00:00Z,26.5255,-82.0032,2.56,33.45,1111122 
SCCF RECON,ioos:station:SCCF:13:1,2014-06-05T02:00:00Z,26.5255,-82.0032,2.49,32.14,1111122 
SCCF RECON,ioos:station:SCCF:13:1,2014-06-05T03:00:00Z,26.5255,-82.0032,2.44,30.85,1111122 
SCCF RECON,ioos:station:SCCF:13:1,2014-06-05T04:00:00Z,26.5255,-82.0032,2.38,27.62,1111122 
SCCF RECON,ioos:station:SCCF:13:1,2014-06-05T05:00:00Z,26.5255,-82.0032,2.33,26.3,1111122 
SCCF RECON,ioos:station:SCCF:13:1,2014-06-05T06:00:00Z,26.5255,-82.0032,2.32,25.54,1111122 
SCCF RECON,ioos:station:SCCF:13:1,2014-06-05T07:00:00Z,26.5255,-82.0032,2.35,24.22,1111122 
SCCF RECON,ioos:station:SCCF:13:1,2014-06-05T08:00:00Z,26.5255,-82.0032,2.45,24.29,1111122 
SCCF RECON,ioos:station:SCCF:13:1,2014-06-05T09:00:00Z,26.5255,-82.0032,2.51,27.81,1111122 
SCCF RECON,ioos:station:SCCF:13:1,2014-06-05T10:00:00Z,26.5255,-82.0032,2.559,29.83,1111122 
SCCF RECON,ioos:station:SCCF:13:1,2014-06-05T11:00:00Z,26.5255,-82.0032,2.605,31.12,1111122 
SCCF RECON,ioos:station:SCCF:13:1,2014-06-05T12:00:00Z,26.5255,-82.0032,2.641,31.98,1111122 
SCCF RECON,ioos:station:SCCF:13:1,2014-06-05T13:00:00Z,26.5255,-82.0032,2.66,33.02,1111122 
SCCF RECON,ioos:station:SCCF:13:1,2014-06-05T14:00:00Z,26.5255,-82.0032,2.65,33.41,1111122 
SCCF RECON,ioos:station:SCCF:13:1,2014-06-05T15:00:00Z,26.5255,-82.0032,2.601,33.27,1111122 
SCCF RECON,ioos:station:SCCF:13:1,2014-06-05T16:00:00Z,26.5255,-82.0032,2.55,33.32,1111122 
SCCF RECON,ioos:station:SCCF:13:1,2014-06-05T17:00:00Z,26.5255,-82.0032,2.503,32.0,1111122 
SCCF RECON,ioos:station:SCCF:13:1,2014-06-05T18:00:00Z,26.5255,-82.0032,2.474,30.12,1111122 
SCCF RECON,ioos:station:SCCF:13:1,2014-06-05T19:00:00Z,26.5255,-82.0032,2.49,28.81,1111122 
SCCF RECON,ioos:station:SCCF:13:1,2014-06-05T20:00:00Z,26.5255,-82.0032,2.535,29.22,1111122 
SCCF RECON,ioos:station:SCCF:13:1,2014-06-05T21:00:00Z,26.5255,-82.0032,2.57,29.86,1111122 
SCCF RECON,ioos:station:SCCF:13:1,2014-06-05T22:00:00Z,26.5255,-82.0032,2.62,31.47,1111122 
SCCF RECON,ioos:station:SCCF:13:1,2014-06-05T23:00:00Z,26.5255,-82.0032,2.67,31.56,1111122 
SCCF RECON,ioos:station:SCCF:13:1,2014-06-06T00:00:00Z,26.5255,-82.0032,2.7,32.09,1111122 
SCCF RECON,ioos:station:SCCF:13:1,2014-06-06T01:00:00Z,26.5255,-82.0032,2.7,32.99,1111122 
SCCF RECON,ioos:station:SCCF:13:1,2014-06-06T02:00:00Z,26.5255,-82.0032,2.67,33.2,1111122 
SCCF RECON,ioos:station:SCCF:13:1,2014-06-06T03:00:00Z,26.5255,-82.0032,2.599,33.28,1111122 
SCCF RECON,ioos:station:SCCF:13:1,2014-06-06T04:00:00Z,26.5255,-82.0032,2.52,31.91,1111122 
SCCF RECON,ioos:station:SCCF:13:1,2014-06-06T05:00:00Z,26.5255,-82.0032,2.47,30.13,1111122 
SCCF RECON,ioos:station:SCCF:13:1,2014-06-06T06:00:00Z,26.5255,-82.0032,2.43,28.35,1111122 
SCCF RECON,ioos:station:SCCF:13:1,2014-06-06T07:00:00Z,26.5255,-82.0032,2.42,27.15,1111122 
SCCF RECON,ioos:station:SCCF:13:1,2014-06-06T08:00:00Z,26.5255,-82.0032,2.45,25.67,1111122 
SCCF RECON,ioos:station:SCCF:13:1,2014-06-06T09:00:00Z,26.5255,-82.0032,2.527,25.77,1111122 
SCCF RECON,ioos:station:SCCF:13:1,2014-06-06T10:00:00Z,26.5255,-82.0032,2.61,29.3,1111122 
SCCF RECON,ioos:station:SCCF:13:1,2014-06-06T11:00:00Z,26.5255,-82.0032,2.67,30.42,1111122 
SCCF RECON,ioos:station:SCCF:13:1,2014-06-06T12:00:00Z,26.5255,-82.0032,2.724,31.51,1111122 
SCCF RECON,ioos:station:SCCF:13:1,2014-06-06T13:00:00Z,26.5255,-82.0032,2.76,32.76,1111122 
SCCF RECON,ioos:station:SCCF:13:1,2014-06-06T14:00:00Z,26.5255,-82.0032,2.73,33.6,1111122 
SCCF RECON,ioos:station:SCCF:13:1,2014-06-06T15:00:00Z,26.5255,-82.0032,2.65,33.79,1111122 
SCCF RECON,ioos:station:SCCF:13:1,2014-06-06T16:00:00Z,26.5255,-82.0032,2.591,33.45,1111122 
SCCF RECON,ioos:station:SCCF:13:1,2014-06-06T17:00:00Z,26.5255,-82.0032,2.533,31.71,1111122 
SCCF RECON,ioos:station:SCCF:13:1,2014-06-06T18:00:00Z,26.5255,-82.0032,2.48,29.07,1111122 
SCCF RECON,ioos:station:SCCF:13:1,2014-06-06T19:00:00Z,26.5255,-82.0032,2.431,28.42,1111122 
SCCF RECON,ioos:station:SCCF:13:1,2014-06-06T20:00:00Z,26.5255,-82.0032,2.393,27.94,1111122 
SCCF RECON,ioos:station:SCCF:13:1,2014-06-06T21:00:00Z,26.5255,-82.0032,2.411,26.55,1111122 
SCCF RECON,ioos:station:SCCF:13:1,2014-06-06T22:00:00Z,26.5255,-82.0032,2.48,26.68,1111122 
SCCF RECON,ioos:station:SCCF:13:1,2014-06-06T23:00:00Z,26.5255,-82.0032,2.547,27.47,1111122 
SCCF RECON,ioos:station:SCCF:13:1,2014-06-07T00:00:00Z,26.5255,-82.0032,2.59,29.26,1111122 
SCCF RECON,ioos:station:SCCF:13:1,2014-06-07T01:00:00Z,26.5255,-82.0032,2.61,30.15,1111122 
SCCF RECON,ioos:station:SCCF:13:1,2014-06-07T02:00:00Z,26.5255,-82.0032,2.59,31.21,1111122 
SCCF RECON,ioos:station:SCCF:13:1,2014-06-07T03:00:00Z,26.5255,-82.0032,2.56,31.51,1111122 
SCCF RECON,ioos:station:SCCF:13:1,2014-06-07T04:00:00Z,26.5255,-82.0032,2.53,31.09,1111122 
SCCF RECON,ioos:station:SCCF:13:1,2014-06-07T05:00:00Z,26.5255,-82.0032,2.48,29.22,1111122 
SCCF RECON,ioos:station:SCCF:13:1,2014-06-07T06:00:00Z,26.5255,-82.0032,2.434,27.55,1111122 
SCCF RECON,ioos:station:SCCF:13:1,2014-06-07T07:00:00Z,26.5255,-82.0032,2.4,26.5,1111122 
SCCF RECON,ioos:station:SCCF:13:1,2014-06-07T08:00:00Z,26.5255,-82.0032,2.38,25.77,1111122 
SCCF RECON,ioos:station:SCCF:13:1,2014-06-07T09:00:00Z,26.5255,-82.0032,2.44,25.06,1111122 
SCCF RECON,ioos:station:SCCF:13:1,2014-06-07T10:00:00Z,26.5255,-82.0032,2.531,25.68,1111122 
SCCF RECON,ioos:station:SCCF:13:1,2014-06-07T11:00:00Z,26.5255,-82.0032,2.591,27.87,1111122 
SCCF RECON,ioos:station:SCCF:13:1,2014-06-07T12:00:00Z,26.5255,-82.0032,2.643,30.0,1111122 
SCCF RECON,ioos:station:SCCF:13:1,2014-06-07T13:00:00Z,26.5255,-82.0032,2.711,31.4,1111122 
SCCF RECON,ioos:station:SCCF:13:1,2014-06-07T14:00:00Z,26.5255,-82.0032,2.76,32.73,1111122 
SCCF RECON,ioos:station:SCCF:13:1,2014-06-07T15:00:00Z,26.5255,-82.0032,2.74,33.34,1111122 
SCCF RECON,ioos:station:SCCF:13:1,2014-06-07T16:00:00Z,26.5255,-82.0032,2.691,33.5,1111122 
SCCF RECON,ioos:station:SCCF:13:1,2014-06-07T17:00:00Z,26.5255,-82.0032,2.62,33.5,1111122 
SCCF RECON,ioos:station:SCCF:13:1,2014-06-07T18:00:00Z,26.5255,-82.0032,2.51,31.63,1111122 
SCCF RECON,ioos:station:SCCF:13:1,2014-06-07T19:00:00Z,26.5255,-82.0032,2.427,31.27,1111122 
SCCF RECON,ioos:station:SCCF:13:1,2014-06-07T20:00:00Z,26.5255,-82.0032,2.377,30.01,1111122 
SCCF RECON,ioos:station:SCCF:13:1,2014-06-07T21:00:00Z,26.5255,-82.0032,2.37,28.29,1111122 
SCCF RECON,ioos:station:SCCF:13:1,2014-06-07T22:00:00Z,26.5255,-82.0032,2.43,27.15,1111122 
SCCF RECON,ioos:station:SCCF:13:1,2014-06-07T23:00:00Z,26.5255,-82.0032,2.499,26.55,1111122 
SCCF RECON,ioos:station:SCCF:13:1,2014-06-08T00:00:00Z,26.5255,-82.0032,2.54,28.02,1111122 
SCCF RECON,ioos:station:SCCF:13:1,2014-06-08T01:00:00Z,26.5255,-82.0032,2.55,29.53,1111122 
SCCF RECON,ioos:station:SCCF:13:1,2014-06-08T02:00:00Z,26.5255,-82.0032,2.59,29.94,1111122 
SCCF RECON,ioos:station:SCCF:13:1,2014-06-08T03:00:00Z,26.5255,-82.0032,2.62,30.71,1111122 
SCCF RECON,ioos:station:SCCF:13:1,2014-06-08T04:00:00Z,26.5255,-82.0032,2.62,31.01,1111122 
SCCF RECON,ioos:station:SCCF:13:1,2014-06-08T05:00:00Z,26.5255,-82.0032,2.57,31.4,1111122 
SCCF RECON,ioos:station:SCCF:13:1,2014-06-08T06:00:00Z,26.5255,-82.0032,2.51,31.13,1111122 
SCCF RECON,ioos:station:SCCF:13:1,2014-06-08T07:00:00Z,26.5255,-82.0032,2.48,29.47,1111122 
SCCF RECON,ioos:station:SCCF:13:1,2014-06-08T08:00:00Z,26.5255,-82.0032,2.44,27.56,1111122 
SCCF RECON,ioos:station:SCCF:13:1,2014-06-08T09:00:00Z,26.5255,-82.0032,2.45,26.48,1111122 
SCCF RECON,ioos:station:SCCF:13:1,2014-06-08T10:00:00Z,26.5255,-82.0032,2.526,26.14,1111122 
SCCF RECON,ioos:station:SCCF:13:1,2014-06-08T11:00:00Z,26.5255,-82.0032,2.62,28.05,1111122 
SCCF RECON,ioos:station:SCCF:13:1,2014-06-08T12:00:00Z,26.5255,-82.0032,2.7,29.96,1111122 
SCCF RECON,ioos:station:SCCF:13:1,2014-06-08T13:00:00Z,26.5255,-82.0032,2.76,30.85,1111122 
SCCF RECON,ioos:station:SCCF:13:1,2014-06-08T14:00:00Z,26.5255,-82.0032,2.799,32.37,1111122 
SCCF RECON,ioos:station:SCCF:13:1,2014-06-08T15:00:00Z,26.5255,-82.0032,2.8,33.34,1111122 
SCCF RECON,ioos:station:SCCF:13:1,2014-06-08T16:00:00Z,26.5255,-82.0032,2.725,33.52,1111122 
SCCF RECON,ioos:station:SCCF:13:1,2014-06-08T17:00:00Z,26.5255,-82.0032,2.628,33.55,1111122 
SCCF RECON,ioos:station:SCCF:13:1,2014-06-08T18:00:00Z,26.5255,-82.0032,2.55,32.73,1111122 
SCCF RECON,ioos:station:SCCF:13:1,2014-06-08T19:00:00Z,26.5255,-82.0032,2.47,31.56,1111122 
SCCF RECON,ioos:station:SCCF:13:1,2014-06-08T20:00:00Z,26.5255,-82.0032,2.39,30.34,1111122 
SCCF RECON,ioos:station:SCCF:13:1,2014-06-08T21:00:00Z,26.5255,-82.0032,2.33,29.14,1111122 
SCCF RECON,ioos:station:SCCF:13:1,2014-06-08T22:00:00Z,26.5255,-82.0032,2.321,28.01,1111122 
SCCF RECON,ioos:station:SCCF:13:1,2014-06-08T23:00:00Z,26.5255,-82.0032,2.37,26.93,1111122 
SCCF RECON,ioos:station:SCCF:13:1,2014-06-09T00:00:00Z,26.5255,-82.0032,2.457,25.94,1111122 
SCCF RECON,ioos:station:SCCF:13:1,2014-06-09T01:00:00Z,26.5255,-82.0032,2.53,26.64,1111122 
SCCF RECON,ioos:station:SCCF:13:1,2014-06-09T02:00:00Z,26.5255,-82.0032,2.59,28.71,1111122 
SCCF RECON,ioos:station:SCCF:13:1,2014-06-09T03:00:00Z,26.5255,-82.0032,2.63,29.65,1111122 
SCCF RECON,ioos:station:SCCF:13:1,2014-06-09T04:00:00Z,26.5255,-82.0032,2.62,30.41,1111122 
SCCF RECON,ioos:station:SCCF:13:1,2014-06-09T05:00:00Z,26.5255,-82.0032,2.56,30.79,1111122 
SCCF RECON,ioos:station:SCCF:13:1,2014-06-09T06:00:00Z,26.5255,-82.0032,2.48,31.24,1111122 
SCCF RECON,ioos:station:SCCF:13:1,2014-06-09T07:00:00Z,26.5255,-82.0032,2.432,29.76,1111122 
SCCF RECON,ioos:station:SCCF:13:1,2014-06-09T08:00:00Z,26.5255,-82.0032,2.42,28.14,1111122 
SCCF RECON,ioos:station:SCCF:13:1,2014-06-09T09:00:00Z,26.5255,-82.0032,2.44,26.18,1111122 
SCCF RECON,ioos:station:SCCF:13:1,2014-06-09T10:00:00Z,26.5255,-82.0032,2.5,26.26,1111122 
SCCF RECON,ioos:station:SCCF:13:1,2014-06-09T11:00:00Z,26.5255,-82.0032,2.583,28.63,1111122 
SCCF RECON,ioos:station:SCCF:13:1,2014-06-09T12:00:00Z,26.5255,-82.0032,2.674,30.21,1111122 
SCCF RECON,ioos:station:SCCF:13:1,2014-06-09T13:00:00Z,26.5255,-82.0032,2.76,31.35,1111122 
SCCF RECON,ioos:station:SCCF:13:1,2014-06-09T14:00:00Z,26.5255,-82.0032,2.81,32.4,1111122 
SCCF RECON,ioos:station:SCCF:13:1,2014-06-09T15:00:00Z,26.5255,-82.0032,2.83,33.33,1111122 
SCCF RECON,ioos:station:SCCF:13:1,2014-06-09T16:00:00Z,26.5255,-82.0032,2.79,33.46,1111122 
SCCF RECON,ioos:station:SCCF:13:1,2014-06-09T17:00:00Z,26.5255,-82.0032,2.7,33.46,1111122 
SCCF RECON,ioos:station:SCCF:13:1,2014-06-09T18:00:00Z,26.5255,-82.0032,2.605,33.35,1111122 
SCCF RECON,ioos:station:SCCF:13:1,2014-06-09T19:00:00Z,26.5255,-82.0032,2.512,32.4,1111122 
SCCF RECON,ioos:station:SCCF:13:1,2014-06-09T20:00:00Z,26.5255,-82.0032,2.439,32.02,1111122 
SCCF RECON,ioos:station:SCCF:13:1,2014-06-09T21:00:00Z,26.5255,-82.0032,2.346,30.64,1111122 
SCCF RECON,ioos:station:SCCF:13:1,2014-06-09T22:00:00Z,26.5255,-82.0032,2.281,28.5,1111122 
SCCF RECON,ioos:station:SCCF:13:1,2014-06-09T23:00:00Z,26.5255,-82.0032,2.27,27.05,1111122 
SCCF RECON,ioos:station:SCCF:13:1,2014-06-10T00:00:00Z,26.5255,-82.0032,2.36,26.08,1111122 
SCCF RECON,ioos:station:SCCF:13:1,2014-06-10T01:00:00Z,26.5255,-82.0032,2.482,25.42,1111122 
SCCF RECON,ioos:station:SCCF:13:1,2014-06-10T02:00:00Z,26.5255,-82.0032,2.55,28.12,1111122 
SCCF RECON,ioos:station:SCCF:13:1,2014-06-10T03:00:00Z,26.5255,-82.0032,2.6,29.35,1111122 
SCCF RECON,ioos:station:SCCF:13:1,2014-06-10T04:00:00Z,26.5255,-82.0032,2.65,30.66,1111122 
SCCF RECON,ioos:station:SCCF:13:1,2014-06-10T05:00:00Z,26.5255,-82.0032,2.67,31.6,1111122 
SCCF RECON,ioos:station:SCCF:13:1,2014-06-10T06:00:00Z,26.5255,-82.0032,2.64,32.06,1111122 
SCCF RECON,ioos:station:SCCF:13:1,2014-06-10T07:00:00Z,26.5255,-82.0032,2.6,32.13,1111122 
SCCF RECON,ioos:station:SCCF:13:1,2014-06-10T08:00:00Z,26.5255,-82.0032,2.55,32.23,1111122 
SCCF RECON,ioos:station:SCCF:13:1,2014-06-10T09:00:00Z,26.5255,-82.0032,2.51,31.35,1111122 
SCCF RECON,ioos:station:SCCF:13:1,2014-06-10T10:00:00Z,26.5255,-82.0032,2.52,29.07,1111122 
SCCF RECON,ioos:station:SCCF:13:1,2014-06-10T11:00:00Z,26.5255,-82.0032,2.58,28.49,1111122 
SCCF RECON,ioos:station:SCCF:13:1,2014-06-10T12:00:00Z,26.5255,-82.0032,2.68,30.18,1111122 
SCCF RECON,ioos:station:SCCF:13:1,2014-06-10T13:00:00Z,26.5255,-82.0032,2.76,31.66,1111122 
SCCF RECON,ioos:station:SCCF:13:1,2014-06-10T14:00:00Z,26.5255,-82.0032,2.83,32.18,1111122 
SCCF RECON,ioos:station:SCCF:13:1,2014-06-10T15:00:00Z,26.5255,-82.0032,2.899,32.93,1111122 
SCCF RECON,ioos:station:SCCF:13:1,2014-06-10T16:00:00Z,26.5255,-82.0032,2.92,34.06,1111122 
SCCF RECON,ioos:station:SCCF:13:1,2014-06-10T17:00:00Z,26.5255,-82.0032,2.86,34.13,1111122 
SCCF RECON,ioos:station:SCCF:13:1,2014-06-10T18:00:00Z,26.5255,-82.0032,2.751,33.95,1111122 
SCCF RECON,ioos:station:SCCF:13:1,2014-06-10T19:00:00Z,26.5255,-82.0032,2.63,33.9,1111122 
SCCF RECON,ioos:station:SCCF:13:1,2014-06-10T20:00:00Z,26.5255,-82.0032,2.55,33.0,1111122 
SCCF RECON,ioos:station:SCCF:13:1,2014-06-10T21:00:00Z,26.5255,-82.0032,2.45,31.63,1111122 
SCCF RECON,ioos:station:SCCF:13:1,2014-06-10T22:00:00Z,26.5255,-82.0032,2.35,30.52,1111122 
SCCF RECON,ioos:station:SCCF:13:1,2014-06-10T23:00:00Z,26.5255,-82.0032,2.3,28.96,1111122 
SCCF RECON,ioos:station:SCCF:13:1,2014-06-11T00:00:00Z,26.5255,-82.0032,2.32,27.65,1111122 
SCCF RECON,ioos:station:SCCF:13:1,2014-06-11T01:00:00Z,26.5255,-82.0032,2.43,27.22,1111122 
SCCF RECON,ioos:station:SCCF:13:1,2014-06-11T02:00:00Z,26.5255,-82.0032,2.52,27.06,1111122 
SCCF RECON,ioos:station:SCCF:13:1,2014-06-11T03:00:00Z,26.5255,-82.0032,2.58,28.58,1111122 
SCCF RECON,ioos:station:SCCF:13:1,2014-06-11T04:00:00Z,26.5255,-82.0032,2.637,30.09,1111122 
SCCF RECON,ioos:station:SCCF:13:1,2014-06-11T05:00:00Z,26.5255,-82.0032,2.69,31.2,1111122 
SCCF RECON,ioos:station:SCCF:13:1,2014-06-11T06:00:00Z,26.5255,-82.0032,2.7,32.46,1111122 
SCCF RECON,ioos:station:SCCF:13:1,2014-06-11T07:00:00Z,26.5255,-82.0032,2.66,33.04,1111122 
SCCF RECON,ioos:station:SCCF:13:1,2014-06-11T08:00:00Z,26.5255,-82.0032,2.62,33.06,1111122 
SCCF RECON,ioos:station:SCCF:13:1,2014-06-11T09:00:00Z,26.5255,-82.0032,2.58,33.19,1111122 
SCCF RECON,ioos:station:SCCF:13:1,2014-06-11T10:00:00Z,26.5255,-82.0032,2.51,31.45,1111122 
SCCF RECON,ioos:station:SCCF:13:1,2014-06-11T11:00:00Z,26.5255,-82.0032,2.57,29.95,1111122 
SCCF RECON,ioos:station:SCCF:13:1,2014-06-11T12:00:00Z,26.5255,-82.0032,2.67,30.45,1111122 
SCCF RECON,ioos:station:SCCF:13:1,2014-06-11T13:00:00Z,26.5255,-82.0032,2.75,32.09,1111122 
SCCF RECON,ioos:station:SCCF:13:1,2014-06-11T14:00:00Z,26.5255,-82.0032,2.82,32.43,1111122 
SCCF RECON,ioos:station:SCCF:13:1,2014-06-11T15:00:00Z,26.5255,-82.0032,2.87,33.32,1111122 
SCCF RECON,ioos:station:SCCF:13:1,2014-06-11T16:00:00Z,26.5255,-82.0032,2.905,33.94,1111122 
SCCF RECON,ioos:station:SCCF:13:1,2014-06-11T17:00:00Z,26.5255,-82.0032,2.918,34.18,1111122 
SCCF RECON,ioos:station:SCCF:13:1,2014-06-11T18:00:00Z,26.5255,-82.0032,2.82,34.2,1111122 